Theta_e
303 303 303 302 302 300 300 294 286 297 299 287 287 281 281 284 283 286 283 283 281 279 280 280 281 280 283 287 287 285 289 289 286 289 295 297 295 292 292 287 285 288 287 288
302 302 302 301 301 298 295 291 289 296 297 281 282 283 281 282 282 282 281 280 282 282 280 277 281 282 287 287 286 284 287 290 284 284 290 294 291 293 294 293 292 287 285 287
302 302 302 301 301 299 296 291 285 288 289 285 281 279 278 279 284 282 282 281 282 280 280 282 279 281 285 287 286 290 289 289 289 285 288 292 288 291 293 292 287 288 288 290
302 302 302 300 300 298 296 291 281 281 279 280 281 280 279 277 277 282 283 280 279 278 275 278 278 281 281 286 286 286 285 285 290 291 292 293 291 291 292 290 291 288 290 290
302 301 301 300 299 299 291 287 286 285 281 279 282 280 277 277 278 278 277 276 278 279 276 278 275 278 279 280 282 282 285 283 288 287 291 291 290 292 292 292 292 292 292 291
303 301 301 300 298 298 290 291 290 288 281 281 280 277 277 278 280 281 281 278 278 278 279 281 282 282 282 280 279 280 281 280 284 284 289 290 286 278 283 291 281 281 287 286
303 301 300 301 298 296 293 291 290 287 280 282 279 279 279 278 280 278 281 280 277 282 284 287 286 283 282 281 281 282 279 280 283 284 287 279 277 281 281 278 277 278 279 280
303 302 300 300 299 297 293 293 290 286 281 282 280 280 279 281 282 280 279 280 281 283 284 282 280 281 280 282 284 282 283 281 280 280 284 279 278 276 274 274 273 276 275 277
302 302 300 300 300 297 295 291 293 288 284 281 280 280 280 278 278 280 280 283 283 284 283 282 276 274 276 277 280 284 284 283 280 280 278 277 274 275 278 277 276 275 275 275
302 302 300 299 299 297 295 291 292 289 283 284 283 281 280 282 280 278 280 278 277 284 281 278 276 276 279 274 273 273 276 277 277 278 278 272 274 275 279 274 271 275 274 274
301 301 301 298 299 298 294 291 291 288 284 284 285 285 281 282 281 276 279 278 277 279 277 278 277 277 277 276 273 271 272 271 275 276 276 272 275 276 274 271 274 273 273 273
301 301 301 298 298 297 294 291 290 290 286 285 287 287 288 286 283 280 280 276 273 278 278 278 278 277 278 275 275 274 272 271 271 271 273 275 275 273 274 273 272 272 271 272
301 301 301 299 298 295 293 291 289 287 285 285 284 283 284 284 281 283 277 279 278 280 281 278 277 274 277 275 276 273 271 270 270 270 273 273 274 275 275 274 271 272 273 272
301 301 301 299 296 294 292 290 289 287 284 280 281 287 284 283 281 279 281 279 281 281 282 278 277 275 276 276 272 272 273 270 271 271 272 272 275 275 273 271 272 272 272 271
300 300 300 299 296 294 292 291 289 288 284 279 280 282 283 279 278 279 281 281 280 280 278 277 276 277 275 273 271 272 272 273 272 274 271 270 272 273 272 269 269 270 269 269
300 300 300 298 295 293 291 285 289 288 288 281 276 281 276 277 277 278 279 282 281 281 280 277 276 270 273 272 273 275 272 271 270 272 270 270 270 270 270 269 268 268 269 269
300 300 300 296 295 292 285 283 286 288 288 281 276 275 275 275 276 277 278 279 281 280 279 276 276 273 274 272 271 276 271 271 270 269 267 266 268 268 267 267 267 268 267 268
300 300 296 294 293 290 285 287 286 286 281 278 273 275 273 274 274 274 276 277 279 278 278 275 273 271 271 267 275 272 271 270 269 268 267 267 267 265 264 266 266 265 265 266
300 292 291 289 287 283 283 286 283 283 280 276 273 274 275 274 272 273 275 276 274 277 274 273 272 272 267 273 275 269 269 267 268 268 265 264 263 264 265 266 264 264 265 266
290 287 285 283 283 285 283 279 277 277 277 276 273 272 273 272 271 272 273 274 274 271 273 273 269 270 276 274 274 273 271 269 265 262 261 263 263 265 265 264 264 265 265 266
291 287 286 284 283 279 278 275 273 273 272 274 273 272 272 271 271 272 272 271 271 267 270 268 270 269 274 272 269 268 268 267 264 265 265 263 264 263 263 263 265 266 266 267
290 288 283 281 278 276 272 274 272 270 273 271 271 270 271 269 271 271 270 269 268 266 270 267 266 274 272 269 266 265 265 263 263 262 261 262 263 263 263 263 264 265 266 267
286 283 279 276 276 270 270 272 274 272 273 269 268 267 269 268 271 269 269 266 266 269 265 266 271 273 269 267 265 265 264 262 262 262 262 262 262 263 262 262 264 266 266 267
284 282 277 274 274 271 276 277 280 274 273 270 271 267 269 269 267 268 265 268 266 264 262 266 274 273 269 266 265 264 263 261 261 262 263 262 261 261 263 264 265 266 266 268
281 279 275 276 281 279 276 274 273 271 272 271 268 267 270 267 266 265 265 262 262 265 268 273 276 273 268 266 264 264 264 262 261 263 262 261 262 261 263 266 266 268 267 268
282 278 279 279 275 277 273 273 273 271 272 273 273 266 266 267 267 262 263 265 264 270 271 275 272 269 269 267 266 265 265 264 263 263 263 263 262 262 265 266 267 267 268 267
280 278 281 282 281 281 281 275 274 273 273 272 270 267 268 264 263 263 267 265 271 274 274 272 271 270 269 268 267 266 265 264 263 262 262 263 264 261 263 264 268 267 268 266
Wind_Speed
30 31 32 33 31 29 6 4 5 12 11 7 4 7 5 7 10 12 7 10 8 9 10 7 7 8 7 12 6 6 4 3 11 19 5 10 17 19 19 10 13 2 2 1
29 30 32 32 30 20 4 3 4 9 10 6 7 5 11 4 12 14 9 12 9 12 6 4 8 8 8 12 10 8 5 4 8 7 6 6 15 21 22 19 13 12 5 3
29 29 31 33 31 19 2 3 3 5 8 6 6 6 10 10 5 8 10 10 8 13 6 6 4 9 6 6 11 9 5 4 6 8 13 10 17 20 18 21 15 12 14 7
29 28 30 33 32 19 2 5 5 1 5 8 9 4 8 13 9 8 12 5 15 10 6 11 8 10 11 3 13 7 5 2 7 6 7 13 17 17 18 20 20 18 12 14
28 26 27 29 33 18 6 4 1 2 3 4 6 10 9 11 7 4 8 9 14 7 4 5 11 12 4 6 11 8 10 4 6 4 5 3 11 14 16 16 16 18 15 8
26 26 24 25 27 16 6 3 2 2 4 3 2 5 7 7 12 4 5 12 11 4 10 15 15 11 12 11 8 7 8 7 4 2 2 6 2 10 9 5 10 7 9 8
24 24 22 21 20 15 5 4 2 2 3 4 4 5 6 9 10 9 11 12 7 5 17 12 3 3 6 6 7 5 6 6 3 2 2 5 7 10 14 15 11 12 9 12
23 23 21 18 15 13 6 4 3 3 2 3 2 8 6 6 8 5 7 11 9 12 11 3 4 5 4 4 7 3 5 4 3 2 6 8 4 10 8 6 7 13 13 14
22 22 21 17 15 10 4 5 3 2 1 3 1 4 6 6 10 5 3 10 10 9 3 2 5 4 5 4 1 5 2 2 3 2 3 1 4 13 7 3 4 12 13 14
20 20 21 17 14 8 4 3 5 2 2 2 2 2 3 5 4 5 4 10 8 12 5 4 4 3 2 4 6 8 6 4 4 4 1 4 7 14 4 5 4 13 13 13
18 19 20 16 12 7 4 2 4 3 1 1 3 1 1 1 2 5 6 4 3 6 5 4 3 3 4 1 3 2 3 4 3 3 3 3 9 1 4 4 6 11 12 14
17 18 18 17 10 8 4 2 2 2 2 2 2 1 1 2 1 3 3 2 1 4 3 2 2 1 2 2 1 4 2 1 2 4 4 2 5 4 6 5 10 13 14 14
16 17 18 17 8 5 3 1 3 1 2 2 3 3 5 3 3 1 3 2 1 1 2 2 1 3 2 3 2 2 5 4 3 4 5 3 4 10 6 8 8 11 13 16
14 16 17 15 5 2 0 1 2 1 1 3 3 2 3 4 3 3 5 2 1 2 2 2 2 2 1 2 3 3 4 5 3 5 3 1 6 9 6 11 11 12 14 15
13 15 15 13 8 5 2 1 2 2 2 3 1 1 1 1 3 2 4 5 3 2 2 3 1 0 3 1 2 5 8 5 4 2 5 3 3 4 12 11 12 13 16 17
14 15 16 12 3 7 1 2 3 0 1 2 3 2 1 3 2 1 1 2 3 2 2 1 1 1 3 3 4 2 6 4 3 2 3 5 10 12 9 8 14 14 14 15
14 16 15 13 4 2 2 2 3 2 2 1 3 2 2 3 1 0 1 2 2 2 1 3 1 3 3 3 5 6 11 9 6 2 1 6 4 2 7 11 12 13 13 13
13 14 12 1 6 6 1 3 2 2 2 0 2 1 2 3 1 2 2 2 2 3 0 2 3 3 3 7 9 4 8 7 7 8 9 7 4 6 7 6 9 12 11 12
11 6 3 1 1 1 2 1 4 1 2 2 2 2 1 1 1 1 2 1 3 2 3 2 2 4 10 9 9 12 12 8 2 4 4 4 8 9 9 9 9 10 12 12
4 1 1 2 2 2 0 1 2 1 1 1 3 1 2 2 1 1 2 0 1 3 2 2 5 8 12 5 5 9 11 10 9 5 5 6 7 9 8 9 9 10 11 13
1 2 2 3 2 1 1 2 2 2 3 5 1 2 2 1 1 1 2 1 1 3 3 3 4 7 5 9 8 7 8 9 8 4 2 2 5 7 8 9 9 10 11 11
2 1 1 1 0 0 2 3 1 4 3 3 3 3 1 3 1 2 2 2 1 4 1 3 6 5 4 8 8 7 7 7 7 5 6 5 6 6 7 8 9 9 11 12
2 1 1 1 2 4 6 6 4 4 6 6 4 3 2 3 1 2 3 4 4 1 4 7 7 2 4 7 7 6 5 5 4 4 4 5 5 5 5 8 9 10 9 9
3 4 6 6 5 8 7 4 3 4 2 8 6 5 2 2 3 2 4 2 2 4 5 9 4 7 7 7 5 7 7 7 6 6 4 5 5 6 6 6 6 7 8 9
5 5 7 10 6 1 1 2 4 3 6 4 4 4 2 2 3 3 0 3 6 8 7 3 2 5 10 10 8 7 6 6 5 4 5 5 5 4 6 5 5 6 6 6
5 7 6 3 1 3 2 4 3 6 6 3 2 4 3 5 3 5 10 5 10 4 5 3 3 5 7 8 7 7 6 6 5 4 4 4 4 5 5 5 4 4 5 5
7 7 6 6 5 6 1 5 4 7 7 5 4 7 6 4 4 6 7 9 3 1 2 1 2 6 8 7 7 7 7 6 5 3 4 4 3 3 4 5 3 4 3 3
Wind_Direction
4 3 2 2 359 351 348 9 44 352 324 53 32 37 6 350 7 15 29 15 355 353 340 347 6 20 3 11 346 2 346 285 166 191 104 230 206 210 198 200 189 169 310 79
6 4 4 2 4 12 330 52 16 24 4 56 46 59 24 19 9 24 12 10 359 339 339 347 31 5 13 11 13 352 331 208 131 156 264 264 223 208 210 221 216 199 192 120
9 6 5 2 6 8 353 72 42 17 42 36 21 3 7 5 27 26 360 10 2 355 358 351 316 3 357 24 11 346 256 287 262 195 206 177 201 210 216 216 222 215 209 163
10 8 8 3 3 8 344 14 70 14 9 25 28 26 353 4 7 2 9 7 8 360 330 339 1 9 335 39 11 1 19 312 325 340 336 190 194 208 212 223 225 227 216 218
12 9 12 11 4 358 65 67 51 108 75 308 5 10 11 354 351 327 357 360 342 346 324 328 312 334 344 22 333 9 352 323 341 313 23 226 210 208 220 220 233 238 240 225
12 11 12 20 15 3 54 37 93 297 16 357 298 21 340 329 341 299 337 341 327 335 349 319 301 292 284 288 304 346 355 337 342 201 38 111 158 15 326 286 50 354 254 4
11 15 11 19 25 30 49 30 301 315 50 32 32 352 342 322 323 290 306 339 338 330 330 291 218 239 250 281 291 255 297 326 307 338 195 206 85 35 43 91 52 21 1 354
9 13 12 10 27 27 47 19 346 7 94 327 164 346 345 318 334 332 298 330 324 319 300 264 190 174 177 134 46 162 247 306 332 294 211 110 56 24 357 354 55 16 358 350
8 8 10 8 15 20 24 40 337 351 294 55 120 341 337 341 344 329 282 329 333 335 281 313 28 37 330 17 288 37 144 228 297 325 300 191 8 342 325 275 180 12 359 350
3 5 11 5 9 28 11 58 4 323 331 143 246 42 354 328 319 295 307 342 334 343 1 53 20 61 309 360 8 342 349 357 345 332 58 102 346 330 325 210 43 344 342 339
356 1 8 3 4 21 345 58 14 339 296 197 206 318 6 304 345 347 346 294 22 350 39 4 35 336 44 266 72 20 336 311 20 277 262 135 2 211 327 21 325 332 331 328
349 354 2 1 6 8 356 318 40 328 254 17 354 41 273 226 117 312 349 4 268 358 316 30 305 308 306 313 135 181 203 41 301 316 30 25 355 263 128 19 334 332 322 321
342 346 353 359 5 24 28 8 2 266 293 196 211 205 173 129 45 256 292 178 299 230 334 340 334 289 308 296 58 299 151 172 222 305 167 294 316 147 174 3 336 321 316 317
335 338 342 353 7 37 178 27 44 310 332 289 130 142 166 124 357 239 234 298 228 274 281 271 272 274 25 350 4 277 37 156 220 265 245 188 138 176 360 337 330 324 319 312
326 326 331 345 329 149 117 137 97 31 330 297 320 227 129 73 339 248 208 225 220 224 218 225 241 172 223 95 276 241 180 175 206 9 106 322 300 6 334 321 320 319 315 314
316 320 322 337 279 153 221 259 163 24 275 271 277 84 20 5 345 93 140 225 215 241 274 208 204 5 255 232 244 147 175 188 151 154 116 269 286 297 293 310 310 309 305 307
311 316 327 327 174 185 262 328 75 171 220 235 276 223 118 344 304 73 248 227 219 275 160 220 201 190 257 255 243 169 185 189 187 201 36 276 231 250 326 303 294 293 287 286
309 322 333 109 131 122 199 66 83 152 103 278 272 219 195 9 159 223 331 245 214 198 175 187 211 143 226 252 231 167 175 188 222 224 206 247 316 303 288 283 299 305 303 304
320 357 99 133 233 227 94 86 88 78 257 231 208 257 70 349 93 276 191 284 232 82 247 219 196 190 225 228 191 181 178 185 214 187 200 282 276 285 293 302 304 301 303 306
93 233 230 253 160 323 149 186 188 187 263 243 241 90 163 292 163 141 259 213 319 256 101 117 230 255 243 196 174 168 172 169 136 148 244 230 243 259 281 282 282 282 289 301
43 293 253 66 343 143 234 258 231 140 229 194 173 216 162 97 233 88 29 328 311 254 121 253 243 258 216 166 153 139 140 158 181 203 313 270 261 274 281 285 294 301 303 304
117 100 46 283 227 106 256 230 176 215 251 166 182 142 88 112 272 193 149 245 206 250 76 249 251 242 130 161 160 158 158 163 178 194 219 235 255 262 278 290 297 299 301 301
75 66 289 297 172 240 215 214 199 227 172 167 166 132 127 142 168 99 187 212 225 3 225 240 241 91 158 157 144 143 151 165 170 192 211 228 253 267 254 274 279 287 294 298
211 213 233 207 202 240 202 208 30 41 84 145 133 117 139 116 149 120 212 121 269 244 238 238 232 199 167 159 148 138 179 184 203 219 218 228 245 267 275 266 280 291 304 316
211 185 231 217 241 289 68 93 133 111 124 126 104 89 164 132 160 218 128 196 240 228 238 238 255 149 153 166 174 181 172 172 197 210 213 224 239 254 281 281 289 304 310 323
207 219 242 206 281 238 192 185 166 158 144 115 84 126 160 207 193 184 216 221 224 219 221 253 137 162 163 161 167 183 180 181 189 200 217 243 246 256 282 299 284 302 323 327
203 227 230 264 278 262 270 161 151 151 152 187 157 192 206 95 193 230 205 221 241 287 262 238 212 174 163 153 164 167 168 180 191 182 208 238 265 288 271 282 311 307 317 313